[[{"header":{"parameterUnit":"m.s-1","parameterCategory":1,"la1":30.2991,"la2":30.254,"lo1":-89.0895,"lo2":-89.0444,"dy":0.0017,"dx":0.0017,"nx":28,"ny":28,"refTime":"2023-08-23T21:00:00:Z","depth":0,"parameterNumber":2,"parameterNumberName":"U-component_of_WINDS"},"data":[0,0,0,0,0,0,0,0,0,0,0,0,0,0,0,0,0,0,0,0,0,0,0,0,0,0,0,0,0,0,0,0,0,0,0,0,0,0,0,0,0,0,0,0,0,0,0,0,0,0,0,0,0,0,0,0,0,0,-0.9915,-0.9914,0,-0.9856,-0.9856,-0.9855,-0.9801,-0.98,-0.9799,-0.9799,-0.9739,-0.9738,-0.9737,0,0,0,0,0,0,0,0,0,0,0,0,0,-0.9978,-0.9977,-0.9915,-0.9914,-0.9913,-0.9856,-0.9856,-0.9855,-0.9801,-0.98,-0.9799,-0.9798,-0.9739,-0.9738,-0.9737,0,0,0,0,0,0,0,0,0,0,0,0,0,-0.9938,-0.9977,-0.9915,-0.9879,-0.9876,-0.9857,-0.9856,-0.9855,-0.9801,-0.98,-0.9799,-0.9798,-0.974,-0.9738,-0.9737,-0.9748,0,0,-0.9732,-0.9732,0,0,0,0,0,0,0,0,-0.9941,-0.9936,-0.9885,-0.9882,-0.9878,-0.9835,-0.9856,-0.9819,-0.9801,-0.9829,-0.9799,-0.9797,-0.9772,-0.9768,-0.9759,-0.9745,-0.9743,-0.9732,-0.9731,-0.9731,-0.973,0,0,0,0,0,0,0,-0.9944,-0.9938,-0.9892,-0.9885,-0.988,-0.9866,-0.9859,-0.9849,-0.9807,-0.9827,-0.9823,-0.9816,-0.9769,-0.976,-0.9757,-0.9742,-0.9732,-0.9731,-0.973,-0.973,-0.9734,-0.9735,0,0,0,0,0,0,-0.9952,-0.9941,-0.9893,-0.989,-0.9907,-0.9866,-0.9858,-0.9849,-0.9807,-0.9799,-0.9817,-0.9814,-0.9763,-0.9759,-0.9755,-0.9764,-0.9731,-0.973,-0.9729,-0.9733,-0.9734,-0.9735,0,0,0,0,0,0,-0.9953,-0.9948,-0.9896,-0.9914,-0.9907,-0.9866,-0.9856,-0.9849,-0.984,-0.98,-0.9792,-0.9816,-0.9762,-0.9757,-0.975,-0.9762,-0.9729,-0.9728,-0.9732,-0.9733,-0.9734,-0.9785,0,0,0,0,0,0,-0.9955,-0.9949,-0.9953,-0.9915,-0.9906,-0.9892,-0.9857,-0.9848,-0.9837,-0.9833,-0.9796,-0.9789,-0.9761,-0.9752,-0.9749,-0.9759,-0.9726,-0.973,-0.9732,-0.9734,-0.9782,-0.9788,-0.9793,0,0,0,0,0,-0.9958,-0.997,-0.9954,-0.9948,-0.991,-0.9893,-0.9888,-0.9855,-0.9839,-0.9842,-0.9816,-0.9791,-0.9761,-0.9752,-0.9747,-0.9758,-0.9729,-0.9732,-0.9734,-0.978,-0.9787,-0.9793,0,0,0,0,0,0,-1.0011,-0.9964,-0.9946,-0.9946,-0.9924,-0.9884,-0.9888,-0.9864,-0.9847,-0.9843,-0.9803,-0.9795,-0.9793,-0.9774,-0.9765,-0.9766,-0.9742,-0.9743,-0.9778,-0.9785,-0.979,-0.9795,-0.9725,0,0,0,0,0,-1.0023,-1.0013,-0.9973,-0.9977,-0.9967,-0.9929,-0.9921,-0.9897,-0.9873,-0.9863,-0.9837,-0.9814,-0.98,-0.9791,-0.9775,-0.9779,-0.977,-0.9783,-0.9789,-0.9794,-0.9795,-0.9795,-0.98,-0.9742,-0.9742,-0.9742,0,0,-1.0047,-1.002,-1.0017,-0.9987,-0.9967,-0.9957,-0.9922,-0.9914,-0.9906,-0.9862,-0.9854,-0.9834,-0.9806,-0.9804,-0.9802,-0.9789,-0.9809,-0.9796,-0.98,-0.98,-0.9798,-0.9803,-0.9808,-0.9744,-0.9743,-0.9743,0,0,-1.0087,-1.0065,-1.0066,-1.0047,-1.0017,-0.9992,-0.9992,-0.9956,-0.994,-0.9931,-0.9898,-0.9888,-0.9864,-0.9845,-0.9833,-0.9864,-0.9839,-0.986,-0.9888,-0.9888,-0.9893,-0.9897,-0.9908,-0.9912,-0.9861,-0.9861,-0.9861,0,-1.0121,-1.0105,-1.0069,-1.0063,-1.005,-1.0009,-1.0009,-0.9992,-0.9959,-0.9952,-0.9937,-0.9905,-0.9884,-0.9877,-0.9884,-0.9875,-0.9874,-0.9864,-0.9895,-0.9899,-0.9902,-0.9912,-0.9916,-0.9864,-0.9864,-0.9863,-0.9863,0,-1.0148,-1.0138,-1.0142,-1.011,-1.0098,-1.0095,-1.0058,-1.005,-1.0028,-1.0004,-0.9995,-0.9967,-0.9945,-0.9941,-0.9919,-0.9931,-0.9923,-0.9903,-0.9878,-0.9911,-0.9919,-0.9923,-0.9868,-0.9867,-0.9866,-0.9866,0,0,-1.022,-1.0168,-1.0171,-1.0155,-1.0119,-1.011,-1.0105,-1.0083,-1.0076,-1.0055,-1.0049,-1.0029,-1.0009,-0.9995,-0.997,-0.997,-0.9996,-0.9949,-0.9948,-0.9959,-1.0006,-1.0022,-1.0027,-0.9979,-0.9979,-0.998,-1.0008,0,-1.0254,-1.0242,-1.0209,-1.0207,-1.0196,-1.0157,-1.0152,-1.0129,-1.0106,-1.0094,-1.0069,-1.0055,-1.003,-1.0021,-1.002,-0.9993,-1.0005,-0.999,-0.9973,-0.9973,-0.9982,-1.0032,-1.0049,-1.0077,-1.0012,-1.0012,-1.0012,0,-1.0291,-1.0271,-1.0268,-1.0232,-1.0226,-1.0222,-1.0199,-1.0188,-1.0161,-1.0144,-1.0127,-1.01,-1.0091,-1.0068,-1.0055,-1.0046,-1.0037,-1.0023,-1.0023,-1.002,-0.9995,-1.003,-1.0085,-1.009,-1.0017,-1.0017,-1.0017,0,-1.0344,-1.0317,-1.0311,-1.0299,-1.0256,-1.0255,-1.0237,-1.0208,-1.0197,-1.0176,-1.0168,-1.0147,-1.0136,-1.012,-1.0087,-1.0073,-1.0078,-1.0052,-1.0064,-1.0065,-1.0067,-1.0067,-1.0121,-1.0061,-1.0061,-1.0061,-1.0061,0,-1.0385,-1.0384,-1.0334,-1.0331,-1.0329,-1.0291,-1.029,-1.0268,-1.0243,-1.0234,-1.0199,-1.0191,-1.0148,-1.0135,-1.011,-1.0103,-1.0098,-1.0084,-1.0077,-1.0087,-1.0089,-1.0081,-1.0078,-1.0062,-1.0062,-1.0061,-1.0061,0,-1.0444,-1.041,-1.0401,-1.0361,-1.0351,-1.0351,-1.0316,-1.0311,-1.0286,-1.0276,-1.0271,-1.0231,-1.0215,-1.018,-1.0154,-1.0136,-1.0136,-1.0124,-1.0145,-1.0141,-1.0155,-1.0154,-1.0206,-1.021,-1.0147,-1.0148,-1.0148,0,-1.0472,-1.0471,-1.043,-1.0422,-1.0405,-1.0392,-1.038,-1.0342,-1.0331,-1.0299,-1.0298,-1.0278,-1.026,-1.0235,-1.0204,-1.0184,-1.0171,-1.019,-1.0168,-1.0178,-1.0171,-1.0172,-1.0171,-1.0196,-1.0196,-1.0197,-1.0198,0,-1.0526,-1.0509,-1.0493,-1.0471,-1.0458,-1.0438,-1.0417,-1.0412,-1.0369,-1.0358,-1.0341,-1.0327,-1.03,-1.0281,-1.0255,-1.0236,-1.021,-1.0205,-1.0207,-1.0217,-1.023,-1.0223,-1.0159,-1.0204,-1.0203,-1.0203,-1.0203,-1.0202,-1.057,-1.0567,-1.0538,-1.0521,-1.0501,-1.0482,-1.0475,-1.0448,-1.0433,-1.0408,-1.0386,-1.037,-1.0342,-1.0305,-1.0288,-1.0275,-1.0262,-1.0264,-1.0265,-1.0266,-1.027,-1.0232,-1.027,-1.027,-1.0269,-1.0269,-1.0269,0,-1.0622,-1.0601,-1.0586,-1.0557,-1.0544,-1.0519,-1.0495,-1.0485,-1.0471,-1.0447,-1.043,-1.041,-1.0391,-1.0358,-1.0336,-1.0331,-1.0319,-1.0327,-1.0327,-1.0323,-1.0283,-1.0284,-1.0338,-1.0338,-1.0338,-1.0338,-1.0338,-1.0338,-1.0648,-1.0641,-1.062,-1.0603,-1.0581,-1.0565,-1.0553,-1.0535,-1.0516,-1.0494,-1.0478,-1.0456,-1.0428,-1.0404,-1.0385,-1.0376,-1.0369,-1.0382,-1.0369,-1.0332,-1.0326,-1.032,-1.032,-1.0381,-1.0381,-1.0409,-1.041,-1.041]},{"header":{"parameterUnit":"m.s-1","parameterCategory":1,"la1":30.2991,"la2":30.254,"lo1":-89.0895,"lo2":-89.0444,"dy":0.0017,"dx":0.0017,"nx":28,"ny":28,"refTime":"2023-08-23T21:00:00:Z","depth":0,"parameterNumber":3,"parameterNumberName":"V-component_of_WINDS"},"data":[0,0,0,0,0,0,0,0,0,0,0,0,0,0,0,0,0,0,0,0,0,0,0,0,0,0,0,0,0,0,0,0,0,0,0,0,0,0,0,0,0,0,0,0,0,0,0,0,0,0,0,0,0,0,0,0,0,0,-1.182,-1.182,0,-1.1829,-1.1829,-1.1829,-1.182,-1.182,-1.182,-1.1819,-1.1829,-1.1829,-1.183,0,0,0,0,0,0,0,0,0,0,0,0,0,-1.1797,-1.1798,-1.182,-1.182,-1.182,-1.1829,-1.1829,-1.1829,-1.182,-1.182,-1.182,-1.1819,-1.1829,-1.1829,-1.183,0,0,0,0,0,0,0,0,0,0,0,0,0,-1.1807,-1.1798,-1.182,-1.1817,-1.1817,-1.1829,-1.1829,-1.1829,-1.182,-1.182,-1.1819,-1.1819,-1.1829,-1.1829,-1.183,-1.1846,0,0,-1.1833,-1.1833,0,0,0,0,0,0,0,0,-1.1806,-1.1808,-1.1817,-1.1817,-1.1817,-1.1823,-1.1824,-1.1835,-1.1821,-1.1819,-1.1819,-1.1819,-1.1827,-1.1828,-1.1831,-1.1846,-1.1847,-1.1833,-1.1833,-1.1834,-1.1834,0,0,0,0,0,0,0,-1.1806,-1.1807,-1.1824,-1.1818,-1.1817,-1.1816,-1.1816,-1.1826,-1.1826,-1.1819,-1.1819,-1.182,-1.1827,-1.183,-1.1831,-1.1847,-1.1833,-1.1834,-1.1834,-1.1835,-1.1876,-1.1877,0,0,0,0,0,0,-1.1805,-1.1807,-1.1823,-1.1824,-1.181,-1.1816,-1.1817,-1.1822,-1.1826,-1.1826,-1.182,-1.1819,-1.1829,-1.183,-1.1832,-1.1851,-1.1834,-1.1835,-1.1835,-1.1876,-1.1876,-1.1877,0,0,0,0,0,0,-1.1805,-1.1807,-1.1823,-1.1815,-1.1817,-1.1817,-1.1822,-1.1822,-1.1825,-1.1827,-1.1827,-1.1823,-1.1829,-1.183,-1.1842,-1.1851,-1.1835,-1.1836,-1.1875,-1.1876,-1.1877,-1.1889,0,0,0,0,0,0,-1.1804,-1.1807,-1.1812,-1.1815,-1.1817,-1.1833,-1.1823,-1.1823,-1.1827,-1.1825,-1.183,-1.183,-1.1828,-1.1841,-1.1843,-1.1852,-1.1836,-1.1874,-1.1875,-1.1876,-1.1887,-1.189,-1.1892,0,0,0,0,0,-1.1803,-1.1815,-1.1813,-1.1815,-1.1825,-1.1834,-1.1835,-1.1833,-1.1827,-1.1833,-1.1834,-1.183,-1.185,-1.1843,-1.1845,-1.1854,-1.1874,-1.1875,-1.1876,-1.1886,-1.1889,-1.1892,0,0,0,0,0,0,-1.1813,-1.1816,-1.1813,-1.1826,-1.183,-1.1832,-1.184,-1.1836,-1.1842,-1.1841,-1.1838,-1.1839,-1.1852,-1.1854,-1.1846,-1.1869,-1.1861,-1.1862,-1.1868,-1.187,-1.1872,-1.1872,-1.1837,0,0,0,0,0,-1.1817,-1.1824,-1.1826,-1.1838,-1.184,-1.1839,-1.1843,-1.1842,-1.1846,-1.1847,-1.1849,-1.1854,-1.1861,-1.1866,-1.1872,-1.1888,-1.1889,-1.1895,-1.1897,-1.1899,-1.1901,-1.1909,-1.1912,-1.1881,-1.1881,-1.1881,0,0,-1.1825,-1.1827,-1.1832,-1.184,-1.1842,-1.185,-1.1841,-1.1849,-1.1855,-1.1849,-1.186,-1.1862,-1.1867,-1.1881,-1.1887,-1.1882,-1.1909,-1.19,-1.1902,-1.1903,-1.1911,-1.1914,-1.1917,-1.1882,-1.1882,-1.1882,0,0,-1.1843,-1.1845,-1.1856,-1.1859,-1.1863,-1.1863,-1.1865,-1.1869,-1.1869,-1.1881,-1.1876,-1.1883,-1.1896,-1.19,-1.1903,-1.1924,-1.192,-1.1926,-1.1937,-1.1946,-1.1948,-1.195,-1.1958,-1.1961,-1.1927,-1.1927,-1.1928,0,-1.1853,-1.1864,-1.1861,-1.187,-1.1874,-1.1868,-1.1879,-1.1882,-1.1889,-1.1892,-1.1887,-1.1902,-1.1905,-1.192,-1.1925,-1.1928,-1.1931,-1.1925,-1.1948,-1.195,-1.1952,-1.196,-1.1962,-1.1928,-1.1928,-1.1928,-1.1928,0,-1.1875,-1.1883,-1.1891,-1.1897,-1.1902,-1.1912,-1.1911,-1.1916,-1.1914,-1.1915,-1.1927,-1.193,-1.1938,-1.1941,-1.1939,-1.1956,-1.1953,-1.1948,-1.1939,-1.1956,-1.1963,-1.1966,-1.1929,-1.1929,-1.1929,-1.1929,0,0,-1.19,-1.1905,-1.1908,-1.1911,-1.1915,-1.1922,-1.1932,-1.1939,-1.1944,-1.1948,-1.1957,-1.1968,-1.1963,-1.1967,-1.1966,-1.1973,-1.199,-1.1967,-1.1967,-1.1972,-1.201,-1.2014,-1.2017,-1.1987,-1.1988,-1.1988,-1.2009,0,-1.1919,-1.1935,-1.1934,-1.195,-1.1957,-1.1952,-1.1961,-1.1965,-1.1966,-1.1973,-1.1974,-1.1982,-1.1975,-1.1977,-1.1985,-1.1986,-1.1998,-1.1985,-1.1996,-1.1996,-1.1995,-1.202,-1.2025,-1.2044,-1.2012,-1.2012,-1.2013,0,-1.1943,-1.1948,-1.1965,-1.1969,-1.1972,-1.198,-1.1987,-1.1993,-1.1998,-1.1998,-1.2003,-1.2,-1.2011,-1.2002,-1.2016,-1.2008,-1.2012,-1.2014,-1.2015,-1.2016,-1.2006,-1.2023,-1.205,-1.2053,-1.2017,-1.2017,-1.2016,0,-1.1959,-1.1971,-1.1983,-1.1986,-1.199,-1.1996,-1.1998,-1.2002,-1.2007,-1.2013,-1.2016,-1.2024,-1.2028,-1.2034,-1.2034,-1.2027,-1.2049,-1.2039,-1.205,-1.205,-1.2055,-1.2054,-1.2084,-1.2057,-1.2057,-1.2057,-1.2057,0,-1.1981,-1.1991,-1.1991,-1.1998,-1.201,-1.2008,-1.202,-1.2022,-1.2025,-1.2033,-1.2029,-1.2037,-1.2036,-1.2044,-1.2044,-1.2056,-1.2058,-1.2059,-1.2059,-1.206,-1.2059,-1.2063,-1.2061,-1.2058,-1.2057,-1.2057,-1.2057,0,-1.2001,-1.2001,-1.2014,-1.2017,-1.2019,-1.2027,-1.2031,-1.2038,-1.2038,-1.2048,-1.2051,-1.2052,-1.2061,-1.2061,-1.2072,-1.2072,-1.2087,-1.2086,-1.2086,-1.2085,-1.2096,-1.2095,-1.2129,-1.2133,-1.2103,-1.2103,-1.2104,0,-1.2015,-1.2023,-1.2028,-1.2033,-1.2035,-1.2043,-1.2048,-1.2047,-1.2052,-1.2058,-1.2065,-1.2073,-1.208,-1.2095,-1.2097,-1.2105,-1.2104,-1.2115,-1.2105,-1.2106,-1.2105,-1.2105,-1.2106,-1.2117,-1.2118,-1.2118,-1.2118,0,-1.2039,-1.2039,-1.2046,-1.2053,-1.2059,-1.2064,-1.207,-1.2074,-1.2073,-1.208,-1.2089,-1.2094,-1.2105,-1.2114,-1.2122,-1.2125,-1.2122,-1.2121,-1.2124,-1.2125,-1.2125,-1.2126,-1.2091,-1.212,-1.212,-1.212,-1.212,-1.212,-1.2057,-1.2065,-1.2069,-1.2077,-1.2081,-1.2086,-1.2093,-1.2095,-1.2102,-1.211,-1.2109,-1.212,-1.2125,-1.2135,-1.2139,-1.2148,-1.2144,-1.2148,-1.2149,-1.215,-1.2152,-1.2123,-1.2149,-1.2149,-1.2149,-1.2149,-1.2149,0,-1.2082,-1.2085,-1.2092,-1.2099,-1.2106,-1.2102,-1.2108,-1.2114,-1.2123,-1.2128,-1.2135,-1.2146,-1.2154,-1.2157,-1.2166,-1.2172,-1.2171,-1.2175,-1.2175,-1.2175,-1.2154,-1.2151,-1.2176,-1.2176,-1.2176,-1.2176,-1.2176,-1.2176,-1.2096,-1.2108,-1.2108,-1.2122,-1.2125,-1.2135,-1.2138,-1.2143,-1.2147,-1.216,-1.2167,-1.2169,-1.2173,-1.2182,-1.2191,-1.2191,-1.2195,-1.2199,-1.2199,-1.218,-1.2177,-1.2174,-1.2171,-1.22,-1.22,-1.222,-1.222,-1.222]}]]